Flag for U.S.A. Weather past 2 weeks in Sheboygan, Wisconsin, U.S.A.

Now
76 °F

Passing clouds.


Feels Like: 78 °F
Forecast: 52 / 64 °F
Wind: 14 mph from Southwest

Location: Sheboygan County Memorial Airport

Current Time: May 25, 2015 at 7:03:35 PM

Latest Report: May 25, 2015 at 5:53 PM


Visibility: 10 mi

Pressure: 29.81 "Hg

Humidity: 60%

Dew point: 61 °F

Location of SheboyganLocation

Historic Weather in Sheboygan — Graph

°F

Sheboygan temperature yesterday

Maximum temperature yesterday: 68 °F (at 9:53 AM)
Minimum temperature yesterday: 44 °F (at 3:53 AM)
Average temperature yesterday: 56 °F

Past Weeks' High & Low Weather Summary

 TemperatureHumidityPressure
High77 °F (May 25, 4:53 PM)100% (May 11, 1:53 AM)30.51 "Hg (May 11, 1:53 AM)
Low30 °F (May 20, 4:53 AM)28% (May 21, 3:53 PM)29.68 "Hg (May 11, 4:53 PM)
Average53 °F71%30.08 "Hg
* Reported May 10 5:53 PM — May 25 5:53 PM, Sheboygan, Weather by CustomWeather, © 2015

Note: Actual official high and low records may vary slightly from our data, if they occured in-between our weather recording intervals... More about our weather records

Advertising

Sheboygan weather history for previous 24 hours

 ConditionsComfort  
Time TempWeatherWind HumidityBarometerVisibility
5:53 PM
Mon, May 25
76 °FPassing clouds.14 mph60%29.81 "Hg10 mi
4:53 PM77 °FPassing clouds.21 mph58%29.81 "Hg10 mi
3:53 PM76 °FSunny.17 mph64%29.80 "Hg10 mi
2:53 PM76 °FBroken clouds.18 mph64%29.78 "Hg10 mi
1:53 PM71 °FMostly cloudy.12 mph81%29.78 "Hg10 mi
12:53 PM74 °FPartly sunny.21 mph69%29.77 "Hg10 mi
11:53 AM73 °FMore clouds than sun.22 mph69%29.76 "Hg10 mi
10:53 AM73 °FBroken clouds.20 mph74%29.75 "Hg10 mi
9:53 AM65 °FPartly sunny.15 mph91%29.75 "Hg8 mi
8:53 AM62 °FOvercast.10 mph90%29.77 "Hg7 mi
8:02 AM60 °FFog.12 mph93%29.78 "Hg3 mi
7:02 AM56 °FFog.5 mph97%29.80 "Hg1 mi
6:53 AM56 °FFog.7 mph97%29.80 "Hg1 mi
5:53 AM54 °FLight rain. Fog.5 mph100%29.81 "Hg1 mi
5:02 AM54 °FFog.3 mph97%29.82 "Hg2 mi
4:53 AM55 °FFog.No wind96%29.82 "Hg3 mi
3:53 AM55 °FFog.No wind96%29.83 "Hg3 mi
3:04 AM55 °FLight rain. Fog.No wind93%29.84 "Hg3 mi
2:53 AM55 °FFog.No wind93%29.84 "Hg3 mi
1:53 AM55 °FLight rain. Fog.No wind93%29.86 "Hg3 mi
12:53 AM54 °FLight rain. Fog.No wind100%29.90 "Hg3 mi
12:00 AM54 °FFog.3 mph97%29.92 "Hg6 mi
11:02 PM
Sun, May 24
54 °FRain. Fog.3 mph97%29.95 "Hg2 mi
10:53 PM54 °FRain. Fog.3 mph97%29.95 "Hg4 mi
10:04 PM55 °FLight rain. Fog.7 mph96%29.96 "Hg5 mi
9:53 PM56 °FLight rain. Fog.6 mph93%29.97 "Hg6 mi
9:02 PM56 °FHeavy rain. Fog.9 mph93%29.97 "Hg2 mi
9:00 PM56 °FHeavy rain. Fog.12 mph93%29.98 "Hg2 mi
7:53 PM55 °FLight rain. Fog.9 mph93%29.99 "Hg4 mi
Weather by CustomWeather, © 2015

See weather overviewHow to use our weather pages